Погода в Мошнах

Украина / Черкасская область     49°31′04″N   31°44′11″E
темп.,
°C
ветер,
м/с
пор.,
м/с
влажн.,
%
обл.,
%
осадки,
мм/ч
давл.,
гПа
погр.,
м
6 августа, пт
пт600:00+22юв311660 0.0 1008263
03:00+19ююв3966100 0.0 1007160
06:00+19ююв2108796 0.0 1007240
09:00+26ю366290 0.0 1006729
12:00+30юз4642100 0.0 10052129
15:00+34ююв71033100 0.0 10022995
18:00+22зсз81286100 2.5 1002451
21:00+19ссз3694100 7.4 1005157
7 августа, сб
сб700:00+19юз229598 2.4 100634
03:00+19сз119651 4.8 100643
06:00+18сз599397 0.6 1008356
09:00+19ссз5878100 0.8 1009517
12:00+24ссз67418 0.0 10101039
15:00+26ссз5537100 0.0 10101263
18:00+25ссз4644100 0.0 10111190
21:00+20сз2364100 0.0 101253
8 августа, вс
вс800:00+18сз226882 0.0 101413
03:00+16ссз117597 0.0 101412
06:00+16сз11780 0.0 101511
09:00+22с24570 0.0 1016438
12:00+27с33410 0.0 10161417
15:00+29ссз33380 0.0 10151619
18:00+27ссз44430 0.0 10151331
21:00+21ссз22640 0.0 101628
9 августа, пн
пн900:00+19с22720 0.0 101712
03:00+17с22683 0.0 101714
06:00+16с22683 0.0 101712
09:00+24с23485 0.0 1017306
12:00+29с443148 0.0 10171245
15:00+31ссз55302 0.0 10161588
18:00+29ссз45355 0.0 10161040
21:00+22ссз36543 0.0 101776
10 августа, вт
вт1000:00+20сз22580 0.0 101719
03:00+19сз22655 0.0 101628
06:00+18сз22822 0.0 101625
09:00+25ссз34533 0.0 1016426
12:00+30ссз33375 0.0 10151033
15:00+31ссз44355 0.0 10141817
18:00+30с44425 0.0 10131365
21:00+23зсз23717 0.2 101382